Wind_Speed
16 16 17 17 17 18 18 19 19 20 21 21 21 22 23 24 25 26 27 28 29 29 30 30 31 32 32 33 34 36 37 38 38 38 40 43 44 44
19 19 19 19 20 20 21 21 22 22 23 24 23 23 24 24 25 27 28 29 30 31 32 32 33 34 34 35 35 36 37 39 40 40 41 42 43 46
21 21 21 22 22 22 23 23 24 24 25 26 26 26 26 26 26 27 28 29 30 31 33 34 34 35 36 37 37 38 39 39 41 42 43 43 44 45
24 24 24 24 24 25 25 25 26 26 27 28 29 29 28 28 28 28 29 29 31 32 33 34 35 36 38 39 39 40 41 41 42 43 44 46 46 46
26 26 27 27 27 27 27 28 28 28 28 29 30 31 31 30 30 30 30 30 31 32 33 35 36 37 38 40 41 42 43 44 44 45 46 47 48 48
29 29 29 29 30 30 30 30 30 30 31 31 31 32 32 33 33 33 32 32 32 33 34 35 36 38 39 41 42 43 44 46 47 47 48 48 49 50
32 32 32 32 32 32 32 33 33 33 33 33 33 34 35 35 35 35 35 35 34 35 35 36 37 38 40 41 42 44 45 46 48 49 50 50 51 52
34 35 35 35 35 35 36 36 36 36 36 36 36 36 37 38 38 38 37 37 37 38 38 38 39 39 41 42 43 44 46 47 48 50 52 53 53 54
37 38 38 39 39 39 39 39 39 39 40 40 39 39 40 40 40 40 40 40 40 40 40 40 41 42 42 43 44 45 46 47 49 50 52 53 54 55
41 41 41 42 43 43 44 43 43 42 43 44 43 42 42 43 43 43 42 42 42 42 42 42 43 44 44 44 45 45 46 47 48 50 51 53 54 56
45 45 46 46 46 47 48 48 46 46 46 46 45 44 44 45 46 46 45 45 44 44 44 44 44 45 45 45 46 46 47 47 47 48 50 51 53 55
50 50 50 49 50 50 52 52 50 49 50 50 48 47 47 47 48 48 48 47 47 46 46 46 45 46 46 46 46 46 46 47 47 47 48 49 51 53
54 54 54 53 53 54 55 55 54 53 53 53 52 51 50 50 50 51 50 49 49 47 47 47 46 46 47 46 46 46 46 46 46 46 47 48 49 51
57 57 58 58 58 58 58 58 58 58 57 56 56 55 54 53 53 52 51 50 50 49 48 48 47 46 47 46 45 45 46 46 46 46 46 46 48 49
61 61 61 62 62 62 62 62 62 62 61 60 59 57 57 56 55 54 53 52 51 49 48 47 48 47 46 45 45 45 45 45 45 45 45 45 45 47
64 65 65 65 66 66 66 65 64 64 64 63 61 60 58 58 56 55 54 53 52 50 48 47 47 46 46 45 44 43 43 43 43 43 43 43 44 44
68 69 69 69 69 69 68 67 66 66 65 63 62 60 59 58 57 55 54 52 51 49 47 46 45 45 45 44 43 42 42 42 42 42 43 42 42 43
72 71 71 71 70 69 68 67 66 65 64 62 61 60 58 56 55 54 52 51 50 48 46 45 45 44 43 41 41 41 41 41 41 42 42 41 41 42
72 71 70 69 68 67 66 65 63 62 61 59 58 56 54 53 52 51 51 49 48 46 44 44 43 43 42 40 39 40 40 40 40 40 40 40 40 41
68 67 66 65 64 63 61 60 58 56 55 54 52 51 51 51 50 49 49 47 45 44 42 42 42 42 41 40 39 39 38 38 38 39 39 39 39 40
60 58 57 56 55 54 53 52 50 49 48 47 47 47 47 47 47 46 45 44 43 43 42 41 40 40 40 39 38 37 37 37 37 38 38 38 39 40
50 48 46 45 44 43 43 42 41 40 40 40 39 41 41 41 41 41 42 42 41 40 39 39 38 38 38 37 36 35 36 36 36 36 37 37 38 38
40 38 37 36 35 34 33 33 32 32 32 33 34 35 36 37 36 35 35 36 37 36 35 35 35 36 36 36 36 35 35 35 36 35 35 35 36 37
Wind_Direction
292 294 295 296 297 297 296 296 295 293 290 287 284 282 280 278 275 273 271 268 266 265 264 262 261 260 258 257 255 253 251 250 250 248 247 246 244 244
288 289 290 291 292 292 292 292 293 292 290 287 285 283 281 280 278 276 274 271 269 267 265 264 262 261 260 259 257 255 254 252 251 250 249 248 247 245
286 286 287 288 289 290 289 290 291 290 289 287 286 284 282 280 278 276 275 273 271 270 268 266 264 262 261 260 259 258 256 254 253 251 250 249 248 247
285 285 286 287 286 287 288 287 289 289 288 287 287 285 283 281 280 278 276 275 273 271 270 268 266 265 263 262 260 259 258 256 254 253 251 249 248 248
285 285 285 286 286 286 286 286 286 287 287 286 285 285 284 282 281 280 279 277 276 274 272 270 268 267 265 264 262 260 259 257 255 253 252 250 249 248
285 285 285 285 286 286 286 285 286 286 285 284 284 283 283 282 282 281 280 278 277 276 274 273 271 269 268 266 264 262 260 258 256 255 253 252 250 249
284 284 284 285 285 286 286 285 286 286 286 284 283 282 282 282 282 281 280 279 278 278 277 276 274 272 270 268 267 265 263 260 258 256 254 253 252 250
285 283 283 284 285 286 286 285 286 286 286 285 284 283 282 282 282 281 281 280 280 279 279 279 277 275 273 270 268 266 264 262 260 257 255 253 252 250
285 283 283 283 283 284 284 285 286 286 285 284 284 284 283 283 282 282 281 281 281 281 281 280 279 277 275 273 270 269 266 264 262 259 256 254 252 250
284 284 283 284 284 284 283 284 284 284 284 283 283 283 283 283 282 282 281 281 281 281 282 281 279 278 277 275 272 270 268 265 263 260 257 255 253 251
285 285 285 284 284 284 283 283 283 284 283 281 282 282 282 282 282 282 282 281 281 282 281 281 280 278 277 276 273 271 268 266 263 261 259 256 254 252
284 284 284 284 283 282 282 282 282 283 282 281 281 281 281 281 281 281 281 281 281 281 281 280 279 278 277 275 273 271 269 267 264 262 259 257 256 253
283 284 283 282 281 281 281 281 282 281 280 280 280 280 280 280 280 280 281 281 281 280 280 279 278 277 276 275 273 271 269 268 265 263 260 258 256 254
283 283 282 282 281 280 280 280 280 279 278 278 278 279 279 279 279 279 279 279 279 279 278 278 277 276 275 274 273 270 269 268 266 264 261 258 256 254
282 282 281 281 280 280 279 279 278 278 277 277 277 277 277 278 277 278 278 277 276 276 275 275 275 275 274 273 272 270 269 267 266 264 262 260 257 254
282 282 281 281 280 279 279 278 277 276 276 276 275 275 274 275 275 276 275 274 274 274 273 273 273 273 272 272 271 270 268 266 265 263 262 260 258 255
282 282 281 281 280 279 278 277 276 275 275 274 273 272 272 272 273 272 272 272 272 272 271 270 270 270 270 271 270 269 267 265 264 263 262 260 258 255
283 282 281 281 280 279 278 276 275 274 273 272 271 270 269 268 268 268 267 268 269 269 268 268 268 268 268 268 269 268 266 265 264 262 261 260 258 255
284 284 283 281 280 279 278 276 274 273 271 269 268 267 265 264 264 263 263 263 264 264 264 265 266 267 267 267 266 266 266 265 264 262 260 259 257 254
286 285 284 282 281 279 277 275 273 270 268 266 263 262 261 260 260 258 258 259 260 260 261 262 264 265 265 266 265 266 265 264 263 261 260 258 257 255
288 287 285 283 281 279 276 273 270 267 265 262 260 258 258 258 257 255 255 256 258 258 259 262 262 262 263 265 265 265 264 263 261 260 259 258 256 255
290 288 287 284 281 277 274 270 266 264 261 259 257 255 255 255 255 254 254 254 256 257 258 259 260 261 262 264 264 262 262 262 261 259 258 257 257 255
290 289 287 285 282 278 272 268 263 260 257 255 253 254 255 254 253 253 255 254 252 251 255 257 259 260 261 262 261 260 260 259 260 259 257 256 256 256
Height
5864 5863 5861 5860 5858 5857 5855 5854 5853 5851 5850 5849 5848 5847 5846 5844 5844 5843 5843 5843 5842 5843 5843 5844 5844 5845 5846 5847 5849 5850 5852 5854 5856 5858 5860 5863 5866 5869
5860 5858 5857 5855 5854 5852 5850 5848 5847 5846 5844 5842 5842 5841 5839 5838 5837 5836 5835 5835 5835 5835 5835 5835 5836 5837 5838 5839 5840 5841 5843 5845 5847 5849 5851 5854 5856 5859
5855 5853 5852 5850 5848 5846 5844 5843 5841 5839 5837 5836 5834 5833 5832 5831 5830 5829 5828 5827 5827 5826 5826 5826 5827 5827 5828 5829 5830 5832 5833 5835 5837 5839 5841 5844 5846 5849
5848 5847 5846 5844 5842 5840 5838 5836 5834 5832 5830 5828 5826 5825 5824 5823 5822 5821 5820 5819 5818 5818 5817 5817 5817 5817 5818 5819 5820 5821 5823 5824 5826 5828 5831 5833 5836 5838
5841 5840 5838 5836 5835 5833 5831 5829 5827 5825 5823 5821 5819 5817 5816 5815 5814 5813 5811 5810 5809 5808 5808 5807 5807 5807 5807 5808 5809 5810 5812 5813 5815 5817 5819 5821 5824 5827
5833 5831 5830 5828 5826 5824 5822 5820 5818 5816 5814 5812 5810 5808 5807 5805 5804 5803 5802 5801 5800 5798 5798 5797 5796 5796 5796 5796 5797 5798 5799 5800 5802 5804 5807 5809 5812 5815
5824 5822 5821 5819 5817 5815 5813 5811 5809 5807 5805 5803 5801 5799 5797 5795 5794 5793 5792 5790 5789 5787 5787 5786 5785 5785 5784 5784 5784 5785 5786 5787 5789 5791 5793 5796 5798 5801
5815 5813 5811 5809 5807 5805 5803 5800 5799 5796 5794 5792 5791 5789 5787 5785 5783 5782 5780 5779 5778 5777 5775 5774 5773 5772 5772 5771 5772 5772 5772 5773 5775 5777 5779 5781 5784 5787
5804 5802 5800 5797 5796 5794 5791 5789 5787 5785 5783 5781 5780 5778 5775 5773 5772 5770 5769 5767 5766 5764 5763 5762 5760 5759 5758 5758 5758 5758 5758 5759 5760 5762 5764 5766 5769 5772
5793 5790 5788 5785 5783 5781 5778 5777 5775 5773 5771 5768 5767 5766 5763 5761 5759 5757 5756 5754 5753 5752 5750 5749 5747 5745 5745 5744 5744 5744 5744 5745 5746 5747 5748 5751 5753 5756
5779 5777 5775 5773 5771 5767 5764 5762 5761 5760 5757 5755 5754 5752 5750 5748 5745 5744 5742 5741 5740 5738 5736 5735 5733 5731 5730 5730 5729 5729 5730 5730 5731 5732 5733 5735 5737 5740
5765 5763 5761 5759 5756 5753 5749 5747 5747 5746 5742 5740 5739 5738 5736 5734 5731 5729 5728 5726 5725 5725 5722 5721 5719 5717 5716 5716 5715 5715 5715 5715 5716 5717 5719 5720 5722 5725
5749 5747 5745 5743 5740 5737 5734 5732 5731 5729 5726 5724 5723 5722 5721 5719 5717 5715 5713 5712 5710 5710 5708 5706 5705 5703 5702 5702 5701 5700 5700 5701 5702 5703 5705 5706 5708 5710
5733 5730 5727 5724 5722 5719 5717 5715 5713 5711 5709 5708 5707 5706 5704 5703 5702 5700 5699 5697 5695 5695 5693 5691 5690 5689 5687 5687 5687 5687 5686 5687 5687 5688 5690 5692 5694 5696
5714 5711 5709 5706 5702 5700 5698 5696 5693 5691 5690 5689 5689 5688 5687 5686 5684 5683 5682 5681 5680 5679 5678 5677 5675 5674 5673 5673 5673 5673 5673 5673 5673 5674 5676 5677 5679 5682
5694 5691 5688 5685 5682 5679 5677 5675 5673 5671 5670 5669 5669 5669 5668 5667 5667 5666 5665 5664 5664 5664 5663 5662 5661 5660 5660 5659 5659 5660 5659 5660 5660 5661 5662 5664 5666 5668
5672 5669 5666 5662 5659 5657 5654 5652 5651 5649 5648 5649 5649 5649 5649 5649 5649 5649 5648 5647 5647 5648 5648 5648 5647 5646 5646 5646 5646 5646 5646 5647 5647 5648 5649 5651 5653 5655
5648 5645 5642 5638 5635 5633 5630 5629 5628 5627 5627 5627 5627 5628 5629 5630 5630 5631 5631 5631 5632 5633 5633 5633 5633 5633 5633 5634 5634 5633 5633 5634 5635 5635 5636 5638 5640 5642
5623 5620 5617 5614 5611 5608 5606 5605 5605 5605 5605 5605 5606 5608 5609 5611 5612 5613 5614 5615 5617 5618 5618 5618 5618 5619 5620 5621 5621 5620 5621 5621 5622 5623 5624 5625 5627 5630
5599 5595 5592 5589 5586 5584 5583 5582 5582 5582 5583 5584 5586 5588 5590 5592 5594 5596 5598 5600 5602 5603 5604 5605 5605 5606 5607 5608 5608 5609 5609 5610 5610 5611 5612 5613 5615 5617
5578 5573 5570 5566 5564 5562 5561 5560 5561 5562 5564 5565 5568 5570 5573 5575 5577 5580 5582 5584 5586 5588 5590 5592 5593 5593 5593 5594 5596 5597 5597 5598 5598 5599 5600 5601 5603 5605
5559 5555 5551 5548 5545 5543 5542 5542 5543 5545 5547 5549 5552 5555 5557 5559 5562 5565 5568 5570 5573 5575 5577 5578 5580 5580 5581 5582 5583 5585 5585 5586 5586 5587 5588 5590 5591 5593
5544 5541 5537 5534 5531 5529 5529 5529 5530 5531 5533 5536 5539 5541 5544 5547 5550 5552 5555 5557 5560 5562 5564 5566 5567 5568 5570 5571 5572 5573 5574 5575 5575 5576 5578 5579 5580 5582